"2010-06-08 00:00:00",181900,1.739,208.3,4.966,0.143,24.77,111.7135,29.3,30.16,19.5,0,111.4,13.09,30.15,170.3
"2010-06-08 00:00:30",181901,1.768,209.5,1.792,0.113,24.77,111.718,29.31,30.17,19.56,0,111.3,13.09,30.17,171.5
"2010-06-08 00:01:00",181902,1.762,204.4,3.638,0.146,24.75,111.7194,29.32,30.16,19.61,0,111.4,13.09,30.17,166.4
"2010-06-08 00:01:30",181903,1.889,202.3,6.78,0.082,24.78,111.7166,29.31,30.18,19.69,0,111.4,13.09,30.16,164.3
"2010-06-08 00:02:00",181904,2.08,204.8,2.268,0.114,24.82,111.7152,29.3,30.16,19.57,0,111.4,13.09,30.16,166.8
"2010-06-08 00:02:30",181905,2.282,203.3,2.522,0.065,24.84,111.7194,29.32,30.18,19.48,0,111.4,13.09,30.17,165.3
"2010-06-08 00:03:00",181906,2.318,206.9,1.839,0.109,24.82,111.7211,29.32,30.17,19.47,0,111.4,13.09,30.17,168.9
"2010-06-08 00:03:30",181907,2.189,206.7,1.493,0.114,24.8,111.7233,29.33,30.19,19.25,0,111.4,13.09,30.18,168.7
"2010-06-08 00:04:00",181908,2.201,212.6,2.952,0.148,24.82,111.7301,29.34,30.18,19.15,0,111.4,13.09,30.20,174.6
"2010-06-08 00:04:30",181909,1.993,207.5,3.362,0.126,24.8,111.7435,29.38,30.19,19.21,0,111.4,13.09,30.23,169.5
"2010-06-08 00:05:00",181910,1.886,205.6,4.549,0.093,24.79,111.7469,29.39,30.19,19.21,0,111.4,13.09,30.24,167.6
"2010-06-08 00:05:30",181911,1.919,205.1,2.418,0.074,24.79,111.7469,29.39,30.2,19.37,0,111.4,13.09,30.24,167.1
"2010-06-08 00:06:00",181912,1.874,205.4,5.147,0.215,24.7,111.7466,29.39,30.2,19.58,0,111.4,13.09,30.24,167.4
"2010-06-08 00:06:30",181913,2.235,210,8.16,0.328,24.61,111.7374,29.36,30.19,20.74,0,111.4,13.09,30.22,172.0
"2010-06-08 00:07:00",181914,2.323,220.9,6.546,0.202,24.54,111.712,29.3,30.18,21.71,0,111.4,13.09,30.15,182.9
"2010-06-08 00:07:30",181915,2.223,218.3,2.097,0.172,24.58,111.7052,29.28,30.15,21.08,0,111.4,13.09,30.13,180.3
"2010-06-08 00:08:00",181916,2.308,225.7,8.34,0.202,24.48,111.6743,29.2,30.13,22.51,0,111.4,13.09,30.05,187.7
"2010-06-08 00:08:30",181917,2.125,216.1,6.399,0.269,24.63,111.6705,29.19,30.09,21.2,0,111.4,13.09,30.04,178.1
"2010-06-08 00:09:00",181918,1.911,218.7,5.417,0.541,24.5,111.6618,29.17,30.08,23.01,0,111.4,13.09,30.02,180.7
"2010-06-08 00:09:30",181919,0.945,210.5,13.56,0.217,24.47,111.6365,29.1,30.06,23.08,0,111.4,13.09,29.96,172.5
"2010-06-08 00:10:00",181920,0.777,167.4,23.01,0.16,24.49,111.6168,29.05,30.03,23.65,0,111.4,13.09,29.90,129.4
"2010-06-08 00:10:30",181921,1.246,155.4,14.79,0.368,24.42,111.6,29.01,29.99,24.16,0,111.4,13.09,29.86,117.4
"2010-06-08 00:11:00",181922,1.648,137.5,7.298,0.175,24.21,111.5774,28.95,29.95,27.96,0,111.4,13.09,29.80,99.5
"2010-06-08 00:11:30",181923,0.811,111.4,38.8,0.364,24.19,111.5178,28.8,29.88,29.3,0,111.4,13.09,29.65,73.4
"2010-06-08 00:12:00",181924,1.741,34.36,4.153,0.554,23.87,111.4676,28.67,29.81,34.33,0,111.4,13.08,29.52,356.4
"2010-06-08 00:12:30",181925,2.052,33.68,5.229,0.273,23.58,111.372,28.42,29.68,40.13,0,111.4,13.08,29.27,355.7
"2010-06-08 00:13:00",181926,2.403,33.03,7.616,0.396,23.46,111.2607,28.14,29.47,42.25,0,111.4,13.09,28.99,355.0
"2010-06-08 00:13:30",181927,2.661,35.86,3.482,0.54,23.51,111.1504,27.85,29.22,42.8,0,111.4,13.09,28.70,357.9
"2010-06-08 00:14:00",181928,2.148,31.38,5.685,0.35,23.67,111.0551,27.61,28.99,43.37,0,111.4,13.09,28.45,353.4
"2010-06-08 00:14:30",181929,2.058,54.43,9.75,0.316,23.74,110.9775,27.41,28.78,43.5,0,111.3,13.09,28.25,16.4
"2010-06-08 00:15:00",181930,1.972,64.46,2.815,0.192,23.96,110.9343,27.3,28.64,43.09,0,111.3,13.1,28.14,26.5
"2010-06-08 00:15:30",181931,1.75,58.48,8.2,0.143,23.91,110.9006,27.21,28.51,43.86,0,111.3,13.1,28.06,20.5
"2010-06-08 00:16:00",181932,1.531,51.27,11.32,0.284,23.89,110.8723,27.14,28.42,44.09,0,111.3,13.1,27.98,13.3
"2010-06-08 00:16:30",181933,1.187,53.38,7.087,0.1,24.04,110.851,27.08,28.35,43.6,0,111.3,13.1,27.93,15.4
"2010-06-08 00:17:00",181934,1.286,77.77,3.979,0.099,24.58,110.8676,27.12,28.28,38.11,0,111.3,13.11,27.97,39.8
"2010-06-08 00:17:30",181935,1.313,96.5,13.66,0.1,24.75,110.9241,27.27,28.29,35.43,0,111.3,13.11,28.12,58.5
"2010-06-08 00:18:00",181936,0.903,116.7,13.02,0.341,24.75,110.9929,27.45,28.34,34.57,0,111.3,13.11,28.29,78.7
"2010-06-08 00:18:30",181937,0.813,123.1,12.42,0.228,24.68,111.0481,27.59,28.4,34.9,0,111.3,13.11,28.44,85.1
"2010-06-08 00:19:00",181938,1.324,137.6,15.28,0.359,24.66,111.0879,27.69,28.46,34.67,0,111.3,13.11,28.54,99.6
"2010-06-08 00:19:30",181939,1.224,132.7,7.875,0.388,24.52,111.1145,27.76,28.55,36.31,0,111.3,13.1,28.61,94.7
"2010-06-08 00:20:00",181940,0.83,96.3,17.97,0.366,24.63,111.1329,27.81,28.6,34.9,0,111.3,13.1,28.66,58.3
"2010-06-08 00:20:30",181941,0.773,105.1,9.61,0.13,24.64,111.1489,27.85,28.65,34.86,0,111.3,13.1,28.70,67.1
"2010-06-08 00:21:00",181942,1.055,70.64,5.16,0.209,24.56,111.1716,27.91,28.66,35.81,0,111.3,13.1,28.76,32.6
"2010-06-08 00:21:30",181943,1.099,82.9,20.24,0.509,24.74,111.1716,27.91,28.7,35.19,0,111.3,13.1,28.76,44.9
"2010-06-08 00:22:00",181944,1.664,110,11.07,0.209,24.65,111.175,27.91,28.75,35.85,0,111.3,13.1,28.76,72.0
"2010-06-08 00:22:30",181945,2.319,112.5,11.07,0.349,24.59,111.1753,27.92,28.76,36.45,0,111.3,13.1,28.77,74.5
"2010-06-08 00:23:00",181946,2.289,144,12.69,0.37,24.57,111.1766,27.92,28.78,36.64,0,111.3,13.1,28.77,106.0
"2010-06-08 00:23:30",181947,2.985,158.4,5.744,0.284,24.73,111.1821,27.93,28.78,35.88,0,111.3,13.1,28.78,120.4
"2010-06-08 00:24:00",181948,2.315,160.8,6.046,0.181,24.65,111.1957,27.97,28.8,35.9,0,111.3,13.1,28.82,122.8
"2010-06-08 00:24:30",181949,1.063,116.4,15.01,0.395,24.43,111.1863,27.94,28.81,37.51,0,111.3,13.1,28.79,78.4
"2010-06-08 00:25:00",181950,1.934,106.5,14.54,0.338,24.59,111.1791,27.93,28.81,36.6,0,111.3,13.1,28.77,68.5
"2010-06-08 00:25:30",181951,1.735,124.9,10.39,0.238,24.68,111.1776,27.92,28.79,35.84,0,111.3,13.1,28.77,86.9
"2010-06-08 00:26:00",181952,2.628,99.1,5.875,0.293,24.65,111.1806,27.93,28.81,36.47,0,111.3,13.1,28.78,61.1
"2010-06-08 00:26:30",181953,2.49,88.5,11.21,0.364,24.65,111.1769,27.92,28.81,36.35,0,111.3,13.1,28.77,50.5
"2010-06-08 00:27:00",181954,2.232,67.07,4.881,0.442,24.6,111.1668,27.89,28.8,36.51,0,111.3,13.1,28.74,29.1
"2010-06-08 00:27:30",181955,1.616,71.03,5.739,0.214,24.64,111.1614,27.88,28.78,36.65,0,111.3,13.1,28.73,33.0
"2010-06-08 00:28:00",181956,2.172,70.8,5.718,0.405,24.67,111.1625,27.88,28.77,36.16,0,111.3,13.1,28.73,32.8
"2010-06-08 00:28:30",181957,2.164,70.96,9.55,0.617,24.71,111.1685,27.9,28.76,35.75,0,111.3,13.1,28.75,33.0
"2010-06-08 00:29:00",181958,1.928,111.7,14.31,0.291,24.73,111.1693,27.9,28.77,35.33,0,111.3,13.1,28.75,73.7
"2010-06-08 00:29:30",181959,1.697,132.2,13.05,0.388,24.71,111.1778,27.92,28.79,34.91,0,111.3,13.1,28.77,94.2
"2010-06-08 00:30:00",181960,1.123,116.9,6.095,0.349,24.64,111.1896,27.95,28.8,35.38,0,111.3,13.1,28.80,78.9
"2010-06-08 00:30:30",181961,1.616,78.77,16.16,0.659,24.61,111.1786,27.92,28.79,35.54,0,111.3,13.1,28.77,40.8
"2010-06-08 00:31:00",181962,2.108,77.76,10.23,0.382,24.54,111.1719,27.91,28.79,35.48,0,111.3,13.1,28.76,39.8
"2010-06-08 00:31:30",181963,2.101,86.6,3.935,0.256,24.62,111.1678,27.9,28.79,35.68,0,111.3,13.1,28.75,48.6
"2010-06-08 00:32:00",181964,2.014,77.59,7.567,0.328,24.56,111.1555,27.86,28.76,35.15,0,111.3,13.1,28.71,39.6
"2010-06-08 00:32:30",181965,2.09,62.1,6.008,0.301,24.62,111.1514,27.85,28.74,35.17,0,111.3,13.1,28.70,24.1
"2010-06-08 00:33:00",181966,1.95,68.06,21.47,0.341,24.7,111.1507,27.85,28.74,34.62,0,111.3,13.1,28.70,30.1
"2010-06-08 00:33:30",181967,1.951,79.59,10.4,0.196,24.7,111.1532,27.86,28.75,34.69,0,111.3,13.1,28.71,41.6
"2010-06-08 00:34:00",181968,1.511,64.18,11.79,0.437,24.56,111.1515,27.85,28.75,35.76,0,111.3,13.1,28.70,26.2
"2010-06-08 00:34:30",181969,1.948,75.59,7.607,0.16,24.67,111.1448,27.84,28.74,35.9,0,111.3,13.1,28.69,37.6
"2010-06-08 00:35:00",181970,1.853,108.2,16.84,0.264,24.61,111.1442,27.84,28.72,36.2,0,111.3,13.11,28.68,70.2
"2010-06-08 00:35:30",181971,0.834,84.4,23.08,0.175,24.71,111.1366,27.82,28.72,36.08,0,111.3,13.11,28.67,46.4
"2010-06-08 00:36:00",181972,0.553,124.8,24.33,0.211,24.7,111.1299,27.8,28.71,36.23,0,111.3,13.11,28.65,86.8
"2010-06-08 00:36:30",181973,0.403,187.2,26.65,0.316,24.65,111.1232,27.78,28.7,36.19,0,111.3,13.11,28.63,149.2
"2010-06-08 00:37:00",181974,1.038,145.5,37.12,0.194,24.58,111.1221,27.78,28.7,36.31,0,111.3,13.11,28.63,107.5
"2010-06-08 00:37:30",181975,1.462,129.5,16.4,0.472,24.47,111.1162,27.76,28.7,36.92,0,111.3,13.11,28.61,91.5
"2010-06-08 00:38:00",181976,1.701,117,7.175,0.381,24.44,111.1111,27.75,28.67,37.14,0,111.3,13.11,28.60,79.0
"2010-06-08 00:38:30",181977,1.636,96.9,12.24,0.184,24.57,111.1086,27.74,28.65,35.99,0,111.3,13.11,28.59,58.9
"2010-06-08 00:39:00",181978,1.983,75.59,7.435,0.386,24.56,111.108,27.74,28.65,36.22,0,111.3,13.1,28.59,37.6
"2010-06-08 00:39:30",181979,2.058,104.1,12.92,0.357,24.49,111.0903,27.7,28.63,37.25,0,111.3,13.1,28.55,66.1
"2010-06-08 00:40:00",181980,2.008,136.4,4.411,0.19,24.45,111.0774,27.66,28.61,37.39,0,111.3,13.11,28.51,98.4
"2010-06-08 00:40:30",181981,2.889,112.3,10.82,0.218,24.47,111.0772,27.66,28.58,37.81,0,111.3,13.11,28.51,74.3
"2010-06-08 00:41:00",181982,2.694,129.8,3.465,0.135,24.53,111.0668,27.64,28.57,37.63,0,111.3,13.11,28.49,91.8
"2010-06-08 00:41:30",181983,2.381,136.8,4.203,0.507,24.56,111.0631,27.63,28.56,37.37,0,111.3,13.11,28.48,98.8
"2010-06-08 00:42:00",181984,2.042,136,6.134,0.345,24.57,111.0707,27.65,28.55,37.19,0,111.3,13.11,28.50,98.0
"2010-06-08 00:42:30",181985,0.894,138.6,10.71,0.416,24.55,111.0749,27.66,28.57,37.37,0,111.3,13.11,28.51,100.6
"2010-06-08 00:43:00",181986,1.922,126.3,7.524,0.257,24.5,111.0609,27.62,28.55,37.61,0,111.3,13.11,28.47,88.3
"2010-06-08 00:43:30",181987,2.021,122.6,20.11,0.274,24.47,111.0482,27.59,28.54,37.99,0,111.3,13.1,28.44,84.6
"2010-06-08 00:44:00",181988,1.889,91.1,9.13,0.277,24.51,111.0438,27.58,28.51,38.08,0,111.3,13.11,28.43,53.1
"2010-06-08 00:44:30",181989,1.896,103,6.599,0.2,24.56,111.039,27.57,28.49,37.9,0,111.3,13.1,28.41,65.0
"2010-06-08 00:45:00",181990,2.059,97.1,11.61,0.198,24.6,111.0365,27.56,28.47,37.37,0,111.3,13.1,28.41,59.1
"2010-06-08 00:45:30",181991,2.408,83.8,4.424,0.243,24.63,111.0351,27.56,28.49,37.41,0,111.3,13.1,28.40,45.8
"2010-06-08 00:46:00",181992,2.226,65.79,5.075,0.153,24.57,111.0376,27.56,28.48,37.43,0,111.3,13.1,28.41,27.8
"2010-06-08 00:46:30",181993,2.184,75.23,3.235,0.16,24.71,111.0401,27.57,28.47,36.69,0,111.3,13.1,28.42,37.2
"2010-06-08 00:47:00",181994,2.042,73.31,7.035,0.512,24.83,111.045,27.58,28.47,36.36,0,111.3,13.1,28.43,35.3
"2010-06-08 00:47:30",181995,1.998,88,8.37,0.323,24.86,111.0667,27.64,28.5,36.09,0,111.3,13.1,28.48,50.0
"2010-06-08 00:48:00",181996,2.327,76.89,6.949,0.181,24.74,111.0815,27.67,28.53,36.29,0,111.3,13.1,28.52,38.9
"2010-06-08 00:48:30",181997,2.205,73.69,8.13,0.233,24.91,111.0928,27.7,28.54,35.57,0,111.3,13.1,28.55,35.7
"2010-06-08 00:49:00",181998,3.077,61,5.696,0.417,24.86,111.1189,27.77,28.58,35.07,0,111.3,13.1,28.62,23.0
"2010-06-08 00:49:30",181999,2.996,56.74,6.189,0.572,24.93,111.1381,27.82,28.6,34.57,0,111.3,13.1,28.67,18.7
"2010-06-08 00:50:00",182000,2.437,54.84,8.89,0.708,24.85,111.159,27.87,28.64,34.57,0,111.3,13.1,28.72,16.8
"2010-06-08 00:50:30",182001,2.998,58.76,5.489,0.499,24.95,111.1722,27.91,28.69,34.22,0,111.3,13.11,28.76,20.8
"2010-06-08 00:51:00",182002,2.131,65.02,6.632,0.224,24.98,111.1797,27.93,28.72,34.14,0,111.3,13.11,28.78,27.0
"2010-06-08 00:51:30",182003,2.377,57.62,2.124,0.178,24.9,111.1903,27.95,28.74,34.04,0,111.3,13.12,28.80,19.6
"2010-06-08 00:52:00",182004,2.432,53.7,3.461,0.152,24.84,111.1941,27.96,28.76,34.57,0,111.3,13.12,28.81,15.7
"2010-06-08 00:52:30",182005,2.796,61.79,4.705,0.232,24.93,111.1948,27.97,28.77,34.33,0,111.3,13.12,28.82,23.8
"2010-06-08 00:53:00",182006,2.876,71.54,4.705,0.28,24.96,111.2066,28,28.8,34.45,0,111.3,13.12,28.85,33.5
"2010-06-08 00:53:30",182007,3.14,66.04,7.663,0.3,24.92,111.2058,27.99,28.81,35.11,0,111.3,13.12,28.84,28.0
"2010-06-08 00:54:00",182008,3.055,88.6,9.89,0.297,24.85,111.192,27.96,28.81,35.4,0,111.3,13.12,28.81,50.6
"2010-06-08 00:54:30",182009,3.284,99.6,8.79,0.315,24.76,111.1833,27.94,28.8,35.85,0,111.3,13.12,28.79,61.6
"2010-06-08 00:55:00",182010,3.959,93.9,14.5,0.382,24.76,111.1791,27.93,28.79,35.98,0,111.3,13.12,28.77,55.9
"2010-06-08 00:55:30",182011,3.505,83,8.05,0.29,24.8,111.155,27.86,28.78,36.14,0,111.3,13.12,28.71,45.0
"2010-06-08 00:56:00",182012,3.191,87,5.169,0.249,24.7,111.1482,27.85,28.75,36.87,0,111.3,13.12,28.70,49.0
"2010-06-08 00:56:30",182013,3.604,104.7,7.525,0.356,24.77,111.1328,27.81,28.72,37,0,111.2,13.12,28.66,66.7
"2010-06-08 00:57:00",182014,3.272,99.6,8.31,0.339,24.69,111.1162,27.76,28.71,37.67,0,111.2,13.12,28.61,61.6
"2010-06-08 00:57:30",182015,3.332,98.9,3.185,0.215,24.89,111.1149,27.76,28.67,37.11,0,111.2,13.12,28.61,60.9
"2010-06-08 00:58:00",182016,2.753,93.8,9.15,0.277,24.88,111.1149,27.76,28.67,36.97,0,111.2,13.12,28.61,55.8
"2010-06-08 00:58:30",182017,2.068,77.09,3.568,0.177,24.73,111.1036,27.73,28.64,37.51,0,111.2,13.12,28.58,39.1
"2010-06-08 00:59:00",182018,2.227,76.38,4.618,0.166,24.69,111.084,27.68,28.64,37.65,0,111.3,13.12,28.53,38.4
"2010-06-08 00:59:30",182019,2.032,68.84,17.52,0.187,24.68,111.0792,27.67,28.6,37.73,0,111.2,13.12,28.52,30.8
"2010-06-08 01:00:00",182020,1.676,58.17,3.462,0.172,24.71,111.0713,27.65,28.58,37.63,0,111.2,13.12,28.50,20.2
"2010-06-08 01:00:30",182021,1.663,48.7,5.963,0.232,24.55,111.0509,27.6,28.56,37.67,0,111.2,13.12,28.44,10.7
"2010-06-08 01:01:00",182022,1.364,34.74,7.869,0.218,24.56,111.0475,27.59,28.53,37.64,0,111.2,13.12,28.44,356.7
"2010-06-08 01:01:30",182023,1.207,30.68,13.71,0.48,24.77,111.0486,27.59,28.53,37.53,0,111.2,13.12,28.44,352.7
"2010-06-08 01:02:00",182024,2.037,44.64,4.117,0.483,24.82,111.0685,27.64,28.52,37.29,0,111.2,13.12,28.49,6.6
"2010-06-08 01:02:30",182025,1.135,27.7,18.39,0.742,24.82,111.084,27.68,28.55,37.4,0,111.2,13.12,28.53,349.7
"2010-06-08 01:03:00",182026,1.233,12.47,17.01,0.672,24.57,111.0862,27.69,28.57,38.29,0,111.2,13.12,28.54,334.5
"2010-06-08 01:03:30",182027,1.399,34.88,10.72,0.682,24.59,111.0741,27.66,28.56,38.21,0,111.2,13.12,28.50,356.9
"2010-06-08 01:04:00",182028,1.671,78.79,16.43,0.401,24.53,111.0642,27.63,28.55,38.47,0,111.2,13.12,28.48,40.8
"2010-06-08 01:04:30",182029,1.251,48.68,23.33,0.589,24.39,111.0546,27.61,28.5,39.05,0,111.2,13.12,28.45,10.7
"2010-06-08 01:05:00",182030,1.51,31.72,16.72,0.668,24.21,111.0268,27.53,28.48,39.96,0,111.2,13.12,28.38,353.7
"2010-06-08 01:05:30",182031,1.151,53.92,12,0.392,24.55,111.0056,27.48,28.44,38.71,0,111.2,13.12,28.33,15.9
"2010-06-08 01:06:00",182032,0.443,24.94,21.74,0.255,24.54,111.0069,27.48,28.41,39.13,0,111.2,13.12,28.33,346.9
"2010-06-08 01:06:30",182033,0.715,42.33,18.37,0.407,24.49,111.0066,27.48,28.41,38.79,0,111.2,13.12,28.33,4.3
"2010-06-08 01:07:00",182034,0.84,42.93,24.37,0.16,24.53,111.0105,27.49,28.4,38.64,0,111.2,13.12,28.34,4.9
"2010-06-08 01:07:30",182035,1.03,48.13,9.31,0.354,24.42,111.0294,27.54,28.4,38.78,0,111.2,13.12,28.39,10.1
"2010-06-08 01:08:00",182036,1.204,57.03,9.27,0.37,24.5,111.0193,27.51,28.4,38.83,0,111.2,13.12,28.36,19.0
"2010-06-08 01:08:30",182037,0.653,39.39,13.65,0.122,24.66,111.0305,27.54,28.38,38.34,0,111.2,13.13,28.39,1.4
"2010-06-08 01:09:00",182038,1.031,59.82,7.283,0.212,24.55,111.0378,27.56,28.41,38.57,0,111.2,13.13,28.41,21.8
"2010-06-08 01:09:30",182039,0.411,51.71,26.37,0.289,24.64,111.0387,27.56,28.42,38.45,0,111.2,13.12,28.41,13.7
"2010-06-08 01:10:00",182040,0.946,59.11,13.95,0.157,24.8,111.0416,27.57,28.41,37.98,0,111.2,13.13,28.42,21.1
"2010-06-08 01:10:30",182041,1.05,63.85,12.94,0.124,24.76,111.0599,27.62,28.43,38.09,0,111.2,13.13,28.47,25.8
"2010-06-08 01:11:00",182042,0.821,89.3,10.23,0.217,24.64,111.0723,27.65,28.44,38.3,0,111.2,13.13,28.50,51.3
"2010-06-08 01:11:30",182043,0.769,133.8,29.24,0.16,24.65,111.0628,27.63,28.44,38.29,0,111.2,13.13,28.47,95.8
"2010-06-08 01:12:00",182044,0.851,130.7,8.36,0.163,24.6,111.0622,27.62,28.46,38.25,0,111.2,13.13,28.47,92.7
"2010-06-08 01:12:30",182045,0.845,98,23.25,0.114,24.62,111.0624,27.63,28.45,38.18,0,111.2,13.13,28.47,60.0
"2010-06-08 01:13:00",182046,0.833,72.84,12.8,0.107,24.67,111.0684,27.64,28.46,38.01,0,111.2,13.12,28.49,34.8
"2010-06-08 01:13:30",182047,1.227,95.2,4.862,0.152,24.69,111.0671,27.64,28.46,37.75,0,111.2,13.12,28.49,57.2
"2010-06-08 01:14:00",182048,1.005,95.2,14.38,0.146,24.63,111.0656,27.63,28.47,37.97,0,111.2,13.12,28.48,57.2
"2010-06-08 01:14:30",182049,0.777,113.6,11.7,0.078,24.56,111.064,27.63,28.48,38.15,0,111.2,13.12,28.48,75.6
"2010-06-08 01:15:00",182050,0.648,103.1,8.36,0.126,24.51,111.0656,27.63,28.47,38.24,0,111.2,13.12,28.48,65.1
"2010-06-08 01:15:30",182051,0.953,65.77,10.03,0.164,24.4,111.0497,27.59,28.47,38.39,0,111.2,13.12,28.44,27.8
"2010-06-08 01:16:00",182052,1.179,64.78,6.758,0.112,24.31,111.0376,27.56,28.45,38.89,0,111.2,13.12,28.41,26.8
"2010-06-08 01:16:30",182053,1.399,58.05,12.19,0.217,24.11,111.0053,27.48,28.43,39.75,0,111.2,13.12,28.33,20.0
"2010-06-08 01:17:00",182054,2.299,39.42,5.399,0.318,23.71,110.9526,27.34,28.35,41.55,0,111.2,13.12,28.19,1.4
"2010-06-08 01:17:30",182055,2.413,21.74,6.277,0.397,23.27,110.8804,27.16,28.23,43.94,0,111.2,13.13,28.00,343.7
"2010-06-08 01:18:00",182056,1.886,7.675,7.822,0.41,23.41,110.7931,26.93,28.11,44.9,0,111.2,13.13,27.78,329.7
"2010-06-08 01:18:30",182057,2.072,5.247,4.916,0.375,23.45,110.7247,26.76,27.97,45.33,0,111.2,13.14,27.60,327.2
"2010-06-08 01:19:00",182058,2.15,6.361,6.935,0.288,23.55,110.6767,26.63,27.85,45.44,0,111.2,13.14,27.48,328.4
"2010-06-08 01:19:30",182059,2.939,28.66,4.443,0.372,23.5,110.6449,26.55,27.75,45.49,0,111.2,13.13,27.40,350.7
"2010-06-08 01:20:00",182060,1.879,47.4,12.44,0.397,23.83,110.614,26.47,27.65,44.9,0,111.2,13.13,27.32,9.4
"2010-06-08 01:20:30",182061,1.082,62.21,20.66,0.409,24.05,110.6197,26.49,27.58,44.05,0,111.2,13.13,27.33,24.2
"2010-06-08 01:21:00",182062,0.523,89.7,8.1,0.094,24.63,110.6598,26.59,27.58,41.73,0,111.2,13.13,27.43,51.7
"2010-06-08 01:21:30",182063,0.356,88,14.62,0.206,24.62,110.7255,26.76,27.6,41.19,0,111.2,13.13,27.60,50.0
"2010-06-08 01:22:00",182064,0.74,81,15.12,0.346,24.63,110.7884,26.92,27.68,40.37,0,111.2,13.13,27.77,43.0
"2010-06-08 01:22:30",182065,0.596,107.2,10.62,0.129,24.7,110.8403,27.05,27.76,39.76,0,111.2,13.13,27.90,69.2
"2010-06-08 01:23:00",182066,0.327,138.5,37.7,0.311,24.57,110.883,27.16,27.84,40.08,0,111.2,13.13,28.01,100.5
"2010-06-08 01:23:30",182067,0.217,100.6,31.66,0.135,24.47,110.9139,27.24,27.9,40.21,0,111.2,13.13,28.09,62.6
"2010-06-08 01:24:00",182068,0.337,124,28.63,0.309,24.44,110.9257,27.27,27.97,39.78,0,111.2,13.13,28.12,86.0
"2010-06-08 01:24:30",182069,0.48,114.2,21.44,0.099,24.4,110.9493,27.33,28.02,39.76,0,111.2,13.13,28.18,76.2
"2010-06-08 01:25:00",182070,0.697,82,10.32,0.147,24.45,110.9524,27.34,28.06,39.44,0,111.2,13.13,28.19,44.0
"2010-06-08 01:25:30",182071,0.955,105.6,22.66,0.156,24.54,110.967,27.38,28.1,39.01,0,111.2,13.13,28.23,67.6
"2010-06-08 01:26:00",182072,1.461,113.8,5.851,0.149,24.7,110.9914,27.44,28.14,38.34,0,111.2,13.13,28.29,75.8
"2010-06-08 01:26:30",182073,1.266,164.1,36.47,0.294,25.1,111.0369,27.56,28.2,32.96,0,111.2,13.13,28.41,126.1
"2010-06-08 01:27:00",182074,0.875,166.9,22.77,0.324,25.22,111.1206,27.78,28.32,30.57,0,111.2,13.13,28.62,128.9
"2010-06-08 01:27:30",182075,1.438,145.4,7.061,0.272,25.31,111.2011,27.98,28.46,28.74,0,111.2,13.13,28.83,107.4
"2010-06-08 01:28:00",182076,1.489,140,6.551,0.308,25.14,111.2708,28.16,28.61,29.52,0,111.2,13.13,29.01,102.0
"2010-06-08 01:28:30",182077,1.097,129.4,6.704,0.204,24.94,111.3115,28.27,28.75,31.08,0,111.2,13.13,29.12,91.4
"2010-06-08 01:29:00",182078,1.18,109.5,10.55,0.348,25.08,111.3224,28.29,28.84,30.2,0,111.2,13.13,29.14,71.5
"2010-06-08 01:29:30",182079,1.245,105.9,7.719,0.272,25.05,111.3572,28.38,28.94,28.9,0,111.2,13.13,29.23,67.9
"2010-06-08 01:30:00",182080,0.825,82.8,10.14,0.134,24.91,111.3578,28.39,29.01,31.35,0,111.2,13.13,29.24,44.8
"2010-06-08 01:30:30",182081,0.879,52.45,19.71,0.203,24.39,111.3438,28.35,29.04,34.71,0,111.2,13.13,29.20,14.5
"2010-06-08 01:31:00",182082,0.867,52.21,7.722,0.172,24.11,111.2688,28.16,29.03,37.61,0,111.2,13.13,29.01,14.2
"2010-06-08 01:31:30",182083,1.694,37.45,4.763,0.301,23.87,111.1834,27.94,28.93,38.81,0,111.2,13.13,28.79,359.5
"2010-06-08 01:32:00",182084,2.112,32.67,7.944,0.195,23.72,111.0894,27.69,28.8,39.93,0,111.2,13.13,28.54,354.7
"2010-06-08 01:32:30",182085,2.014,30.26,4.95,0.153,23.66,111.0007,27.47,28.63,40.67,0,111.2,13.13,28.31,352.3
"2010-06-08 01:33:00",182086,2.255,34.52,3.605,0.271,23.54,110.9167,27.25,28.46,41.87,0,111.2,13.13,28.10,356.5
"2010-06-08 01:33:30",182087,2.272,35.49,1.779,0.209,23.68,110.8493,27.08,28.3,42.11,0,111.2,13.14,27.92,357.5
"2010-06-08 01:34:00",182088,2.044,32.95,2.358,0.144,23.78,110.8053,26.96,28.17,42.26,0,111.2,13.14,27.81,355.0
"2010-06-08 01:34:30",182089,1.74,35.85,2.546,0.128,23.71,110.7811,26.9,28.09,42.6,0,111.2,13.14,27.75,357.9
"2010-06-08 01:35:00",182090,1.552,40.97,7.288,0.147,23.81,110.7511,26.82,28.01,42.72,0,111.2,13.14,27.67,3.0
"2010-06-08 01:35:30",182091,1.256,55.02,4.799,0.088,24.08,110.7483,26.82,27.95,41.99,0,111.2,13.14,27.66,17.0
"2010-06-08 01:36:00",182092,1.113,54.21,3.496,0.083,24.13,110.7497,26.82,27.92,41.88,0,111.2,13.14,27.67,16.2
"2010-06-08 01:36:30",182093,1.291,53.47,2.692,0.081,24.07,110.7586,26.84,27.9,41.79,0,111.2,13.14,27.69,15.5
"2010-06-08 01:37:00",182094,1.44,51.66,1.89,0.069,24.18,110.7803,26.9,27.88,41.74,0,111.2,13.13,27.75,13.7
"2010-06-08 01:37:30",182095,1.479,51.27,4.959,0.111,24.26,110.782,26.9,27.89,41.59,0,111.2,13.13,27.75,13.3
"2010-06-08 01:38:00",182096,1.366,47.42,2.296,0.062,24.34,110.7874,26.92,27.88,41.58,0,111.1,13.13,27.76,9.4
"2010-06-08 01:38:30",182097,1.121,50.12,5.866,0.133,24.33,110.8068,26.97,27.89,41.46,0,111.1,13.13,27.81,12.1
"2010-06-08 01:39:00",182098,1.121,46.01,4.217,0.066,24.27,110.816,26.99,27.89,41.45,0,111.2,13.13,27.84,8.0
"2010-06-08 01:39:30",182099,1.128,49.52,4.205,0.094,24.33,110.8208,27,27.91,41.29,0,111.2,13.13,27.85,11.5
"2010-06-08 01:40:00",182100,1.004,47.94,3.545,0.087,24.4,110.8337,27.04,27.92,41.21,0,111.2,13.13,27.88,9.9
"2010-06-08 01:40:30",182101,1.047,38.11,3.651,0.083,24.51,110.8506,27.08,27.94,41.09,0,111.1,13.13,27.93,0.1
"2010-06-08 01:41:00",182102,1.126,34.22,4.056,0.089,24.54,110.8537,27.09,27.95,40.77,0,111.1,13.13,27.94,356.2
"2010-06-08 01:41:30",182103,0.603,22.05,16.14,0.355,24.92,110.8818,27.16,27.97,38.19,0,111.2,13.13,28.01,344.0
"2010-06-08 01:42:00",182104,0.244,349,14.96,0.099,25.3,110.9387,27.31,28.04,33.5,0,111.1,13.14,28.15,311.0
"2010-06-08 01:42:30",182105,0.151,329.5,17.14,0.059,25.13,111.0175,27.51,28.13,34.29,0,111.2,13.14,28.36,291.5
"2010-06-08 01:43:00",182106,0.117,3.811,19.14,0.151,25.04,111.0552,27.61,28.22,35.42,0,111.2,13.14,28.46,325.8
"2010-06-08 01:43:30",182107,0.221,2.009,16.46,0.089,25.13,111.0826,27.68,28.32,34.99,0,111.1,13.14,28.53,324.0
"2010-06-08 01:44:00",182108,0.474,19.7,5.822,0.204,24.83,111.1013,27.73,28.38,37,0,111.2,13.14,28.57,341.7
"2010-06-08 01:44:30",182109,0.609,16.59,4.734,0.189,24.72,111.0911,27.7,28.43,38.47,0,111.1,13.14,28.55,338.6
"2010-06-08 01:45:00",182110,0.52,18.48,5.992,0.144,24.67,111.0785,27.67,28.45,38.83,0,111.2,13.14,28.52,340.5
"2010-06-08 01:45:30",182111,0.305,349.4,16.23,0.202,24.83,111.0612,27.62,28.45,37.77,0,111.2,13.14,28.47,311.4
"2010-06-08 01:46:00",182112,0.467,332.4,11.49,0.069,24.85,111.0621,27.62,28.45,36.62,0,111.2,13.15,28.47,294.4
"2010-06-08 01:46:30",182113,0.523,321,6.757,0.091,24.93,111.0642,27.63,28.45,35.93,0,111.2,13.14,28.48,283.0
"2010-06-08 01:47:00",182114,0.639,299.8,7.842,0.104,25.09,111.0856,27.69,28.47,34.94,0,111.2,13.14,28.53,261.8
"2010-06-08 01:47:30",182115,0.361,322.9,14.12,0.063,24.75,111.0975,27.72,28.51,36.76,0,111.2,13.14,28.56,284.9
"2010-06-08 01:48:00",182116,0.18,357,13.79,0.113,24.84,111.0746,27.66,28.5,37.98,0,111.2,13.14,28.51,319.0
"2010-06-08 01:48:30",182117,0.088,33.34,8.34,0.096,24.85,111.0696,27.64,28.5,38.49,0,111.2,13.14,28.49,355.3